Regional Weather Roundup
Issued by NWS

Home | Current Version | Previous Version | Graphics & Text | Print | Product List | Glossary Off
Versions: 1 2 3 4 5 6 7 8 9 10 11 12 13 14 15 16 17 18 19 20 21 22 23 24 25 26 27 28 29 30 31 32 33 34 35 36 37 38 39 40 41 42 43 44 45 46 47 48 49 50

000
ASUS43 KDMX 210607
RWRIA

WEATHER ROUNDUP FOR IOWA
NATIONAL WEATHER SERVICE DES MOINES IA
1200 AM CST SUN DEC 21 2014

NOTE: "FAIR" INDICATES FEW OR NO CLOUDS BELOW 12,000 FEET WITH NO
SIGNIFICANT WEATHER AND/OR OBSTRUCTIONS TO VISIBILITY.

* - THESE STATIONS ARE NOT NWS STATIONS...THUS NOT UNDER NWS
QUALITY CONTROL.  THEY ALSO DO NOT REPORT WEATHER SUCH
AS PRECIPITATION OR FOG.

IAZ001>003-012>014-020>022-031>034-043>046-210700-
   NORTHWEST IOWA

CITY           SKY/WX    TMP DP  RH WIND       PRES   REMARKS
CARROLL *      FOG       34  34 100 SE7       30.04S VSB 1/4 WCI  28
CHEROKEE *     CLOUDY    31  31 100 S9        30.01F FOG     WCI  23
DENISON *      CLOUDY    32  32 100 S6        30.00F FOG     WCI  26
LE MARS *      CLOUDY    32  32 100 S12       30.00S FOG     WCI  23
ORANGE CITY *  FOG       32  30  93 S12       29.98F VSB 1/4 WCI  23
SHELDON *      CLOUDY    30  30 100 S9        29.98F FOG     WCI  22
SIOUX CITY     CLOUDY    33  31  92 SE9       29.99F FOG     WCI  25
6HR MIN TEMP:  33; 6HR MAX TEMP:  33;

SPENCER        CLOUDY    32  30  92 S14       30.01F FOG     WCI  22
6HR MIN TEMP:  32; 6HR MAX TEMP:  33;

STORM LAKE *   FOG       30  30 100 S10G16    30.02S VSB 3/4 WCI  21
$$

IAZ055>058-069>071-079>083-090>094-210700-
   SOUTHWEST IOWA

CITY           SKY/WX    TMP DP  RH WIND       PRES   REMARKS
ATLANTIC *     CLOUDY    36  36 100 S6        30.04R FOG     WCI  31
AUDUBON *      FOG       34  30  86 CALM      30.05S VSB 3/4
CLARINDA *     CLEAR     37  37 100 S9        30.08R WCI  31
COUNCIL BLFS * FOG       34  34 100 SE12      30.01S VSB 0   WCI  25
CRESTON *      CLOUDY    37  37 100 S13       30.06R FOG     WCI  29
HARLAN  *      FOG       34  34 100 S6        30.07S VSB 1/4 WCI  29
LAMONI         CLOUDY    36  35  96 S16G22    30.09S WCI  26
6HR MIN TEMP:  35; 6HR MAX TEMP:  37;

RED OAK *      CLOUDY    37  37 100 S8        30.05S WCI  31
SHENANDOAH *   CLOUDY    37  37 100 S12       30.05S FOG     WCI  30
$$

IAZ047>049-059>061-072>074-084-210700-
   CENTRAL IOWA

CITY           SKY/WX    TMP DP  RH WIND       PRES   REMARKS
AMES           FOG       34  33  96 SE8       30.08S VSB 3/4 WCI  27
6HR MIN TEMP:  33; 6HR MAX TEMP:  34;

ANKENY *       CLOUDY    36  36 100 S7        30.09S FOG     WCI  30
CHARITON *     CLOUDY    37  37 100 S16       30.09F FOG     WCI  28
DES MOINES     CLOUDY    37  35  92 S9        30.09S FOG     WCI  30
6HR MIN TEMP:  36; 6HR MAX TEMP:  37; 6HR PCP: TRACE;

GRINNELL*      FOG       34  34 100 SE8       30.10F VSB 3/4 WCI  27
KNOXVILLE *    CLOUDY    36  36 100 S9        30.09S FOG     WCI  29
MARSHALLTOWN   FOG       33  33 100 SE9       30.09F VSB 3/4 WCI  25
6HR MIN TEMP:  32; 6HR MAX TEMP:  33;

PELLA *        CLOUDY    36  36  99 S9        30.12S FOG     WCI  29
PERRY *        FOG       34  34 100 SE7       30.06F VSB 1/4 WCI  28
$$

IAZ004>006-015-016-023>025-035-036-210700-
   NORTH CENTRAL IOWA

CITY           SKY/WX    TMP DP  RH WIND       PRES   REMARKS
ALGONA *       CLOUDY    34  32  93 S14       30.04S FOG     WCI  24
CLARION *      CLOUDY    32  32 100 S12       30.05F FOG     WCI  23
ESTHERVILLE    CLOUDY    31  30  96 S17       30.01S WCI  19
6HR MIN TEMP:  31; 6HR MAX TEMP:  31;

FORT DODGE *   CLOUDY    34  30  86 S5        30.05F WCI  30
MASON CITY     FOG       32  32 100 S13       30.08S VSB 1/2 WCI  22
6HR MIN TEMP:  30; 6HR MAX TEMP:  32;

FOREST CITY *  CLOUDY    32  32 100 S12       30.05F FOG     WCI  23
IOWA FALLS *   CLOUDY    33  32  98 SE6       30.08F FOG     WCI  27
$$

IAZ007>011-017>019-026>030-037>042-050>054-066-210700-
   NORTHEAST IOWA

CITY           SKY/WX    TMP DP  RH WIND       PRES   REMARKS
CEDAR RAPIDS   FOG       33  33 100 SE7       30.13F VSB 1/4 WCI  27
6HR MIN TEMP:  32; 6HR MAX TEMP:  33;

CHARLES CITY * FOG       32  32 100 SE12      30.09F VSB 0   WCI  23
CLINTON *      CLOUDY    32  28  86 SE7       30.21F WCI  26
DECORAH *      CLOUDY    30  30 100 S9G15     30.11S FOG     WCI  22
DUBUQUE        CLOUDY    31  29  92 S9        30.15F FOG     WCI  23
6HR MIN TEMP:  29; 6HR MAX TEMP:  31;

MONTICELLO *   FOG       32  32 100 SE8       30.15F VSB 1   WCI  25
OELWEIN *      FOG       32  32 100 S10       30.12F VSB 0   WCI  24
WATERLOO       FOG       32  32 100 S9        30.11F VSB 1/2 WCI  24
6HR MIN TEMP:  32; 6HR MAX TEMP:  32;

$$

IAZ064-065-067-068-078-210700-
   EAST CENTRAL IOWA

CITY           SKY/WX    TMP DP  RH WIND       PRES   REMARKS
DAVENPORT      CLOUDY    33  30  88 S9        30.18F FOG     WCI  25
6HR MIN TEMP:  32; 6HR MAX TEMP:  33;

IOWA CITY      CLOUDY    34  33  96 SE6       30.17S FOG     WCI  29
6HR MIN TEMP:  32; 6HR MAX TEMP:  34;

MT. PLEASANT * CLOUDY    34  34 100 S6        30.17S FOG     WCI  29
MUSCATINE *    CLOUDY    36  34  93 S5        30.18S FOG     WCI  32
QUAD CITIES    CLOUDY    34  31  88 S10       30.18F FOG     WCI  26
6HR MIN TEMP:  33; 6HR MAX TEMP:  34;

$$

IAZ062-063-075>077-085>089-095>099-210700-
   SOUTHEAST IOWA

CITY           SKY/WX    TMP DP  RH WIND       PRES   REMARKS
BURLINGTON     CLOUDY    36  34  92 S8        30.17F FOG     WCI  30
6HR MIN TEMP:  35; 6HR MAX TEMP:  36; 6HR PCP: TRACE;

FAIRFIELD *    CLOUDY    36  36 100 S7        30.15S FOG     WCI  30
FORT MADISON * CLOUDY    37  37 100 S6        30.18F FOG     WCI  33
KEOKUK *       CLOUDY    37  36  93 S7        30.17F WCI  32
OSKALOOSA *    CLOUDY    34  34  99 SE8       30.12F FOG     WCI  27
CENTERVILLE *  CLOUDY    37  37 100 S12       30.13S WCI  30
OTTUMWA        CLOUDY    36  34  92 S10       30.12F FOG     WCI  28
6HR MIN TEMP:  35; 6HR MAX TEMP:  36;

WASHINGTON *   CLOUDY    36  36 100 S7        30.15F FOG     WCI  30
$$

ABBREVIATIONS USED IN REMARKS
   TC - TEMPERATURES IN CELSIUS
  WCI - WIND CHILL INDEX
   HX - HEAT INDEX
  VSB - VISIBILITY
$$




USA.gov is the U.S. government's official web portal to all federal, state and local government web resources and services.